Погода в Кызылорде

Хотите узнать прогноз погоды в Кызылорде? Тогда Вам сюда: Погода в Кызылорде

Поиск расширенной информации на нашем сайте:

Полезная информация:

Новости сайта



02.01.2020
Опубликован Долгосрочный прогноз погоды по городам России и ближнего зарубежья на январь 2020 года.
Карты: Прогноз на январь и февраль 2020 года, Сравнение прогнозируемой аномалии приземной температуры воздуха на январь 2020 года по разным моделям.




Погода в Кызылорде - сегодня

Время (UTC), дата Ветер
(°,м/с) 
Видим.   Явления Облачность Т
(°С)
Тd
(°С)
f(%) Тe
(°С)
Pmin
(гПа)
dP
(гПа)
Po
(мм)
O2
(г/м3)
Тmin Tmax R s Состояние
почвы
06 16.01.21 120 (ЮВ) 20000 м    8/0 средняя, верхняя 
[Ac lent|Ci fib]
-4.3 -10.7 61 -6  1013  -0.2  747  307  -11.8         
09 16.01.21 150 (ЮВ) 20000 м    8/0 средняя, верхняя 
[Ac cast|Ci sp]
+10 -3 40 +10  1011.2  -1  747  291           
12 16.01.21 180 (Ю) 20000 м    8/0 средняя, верхняя 
[Ac cast|Ci sp]
+8.7 -2.2 46 +10  1013.5  2.2  748  292           
15 16.01.21 тихо ()   н/о    4/0 средняя 
[Ac lent]
+0.4 -5 67 1017.9  3.8  751  303    +13.1       
18 16.01.21 тихо ()   н/о  дымка  ясно 
-3.5 -5.6 85 -4  1020  1.8  752  308    +13.1       
21 16.01.21 010 (С) н/о  дымка  ясно 
-6.5 -8.1 88 -6  1021.4  1.3  753  312           
00 17.01.21 040 (СВ) н/о  дымка  ясно 
-8.9 -10 92 -11  1020.9  -0.6  753  315           
03 17.01.21 030 (СВ) 10 км    4/0 верхняя 
[Ci fib]
-9.7 -10.9 91 -11  1021.6  0.5  753  316           
06 17.01.21 040 (СВ) 20000 м    8/0 верхняя 
[Ci]
-6.4 -9.6 78 -8  1020.8  -0.5  753  312  -10.5         
09 17.01.21 070 (В) 20000 м    6/0 верхняя 
[Ci]
-0.4 -6.7 62 -1  1017  -3.4  750  304           
12 17.01.21 050 (СВ) 20000 м    6/0 верхняя 
[Ci]
-0.8 -6.1 67 -2  1015.2  -1.8  749  303           
15 17.01.21 030 (СВ) н/о  дымка  8/0 верхняя 
[Ci]
-4.3 -6.2 87 -4  1013.7  -1.6  748  307    +0.6       
18 17.01.21 тихо ()   н/о  дымка  4/0 верхняя 
[Ci]
-6.6 -7.8 91 -7  1012.1  -1.7  747  309    +0.6       
21 17.01.21 050 (СВ) н/о    ясно 
-7.3 -8.6 90 -10  1011.4  -0.7  746  310           
00 18.01.21 050 (СВ) н/о    ясно 
-8.9 -10.4 89 -9  1011.2  -0.4  746  312           
03 18.01.21 060 (СВ) 10 км    8/0 средняя, верхняя 
[Ac lent|Ci]
-9.7 -11.4 87 -10  1010.9  -0.4  746  313           
06 18.01.21 тихо ()   20000 м    9/0 средняя 
[Ac As]
-6.9 -10.2 77 -7  1011.6  746  309  -10.1         
09 18.01.21 080 (В) 20000 м    10/0 средняя, верхняя 
[Ac cast|Cs]
+0.4 -6.6 59 +1  1010.4  -0.9  746  301           
12 18.01.21 080 (В) 20000 м    10/0 средняя, верхняя 
[Ac trans|Cs]
-0.9 -5.5 71 -2  1010.4  746  302           
15 18.01.21 060 (СВ) н/о    8/0 верхняя 
[Ci ing]
-3.1 -6.2 79 -4  1010.7  0.2  746  305    +1.3       
18 18.01.21 060 (СВ) н/о    10/0 средняя, верхняя 
[Ac lent|Ci ing]
-4.7 -7.5 81 -6  1010.9  0.1  746  307    +1.3       
21 18.01.21 060 (СВ) н/о  дымка  8/0 средняя, верхняя 
[Ac lent|Ci]
-6.1 -8.4 84 -6  1010.3  -0.7  745  308           
00 19.01.21 090 (В) н/о  дымка  8/0 верхняя 
[Ci]
-7.3 -9.4 85 -7  1010.7  0.4  746  310           
06 19.01.21 200 (Ю) 20000 м    ясно 
-2.2 -8.5 62 -2  1012.5  1.2  747  304  -9.1         
09 19.01.21 220 (ЮЗ) 20000 м    8/0 средняя, верхняя 
[Ac cuf|Ci]
+8 -1.4 51 +9  1011.4  -0.5  747  292           
Время (UTC), дата Ветер
(°,м/с) 
Видим.   Явления Облачность Т
(°С)
Тd
(°С)
f(%) Тe
(°С)
Pmin
(гПа)
dP
(гПа)
Po
(мм)
O2
(г/м3)
Тmin Tmax R s Состояние
почвы

Для получения пояснительной информации подведите курсор к названию столбца.

ПОГОДА в Кызылорде - архив

Всё, что Вы хотите узнать о погоде в Кызылорде - удобно и подробно!

Выберите нужную дату (начиная с 1 января 2019* года) и нажмите кнопку "Найти".
Будут отображены архивные сводки погоды по пункту Кызылорда, начиная с указанной даты.


Отображать данные в формате CSV (для использования в таблицах Excel)


Внимание! Наш архив погоды предназначен исключительно для личного некоммерческого использования в познавательных целях. Если Вам необходимы официальные справки о состоянии погоды (для производственных, юридических, коммерческих и т.п. целей), обращайтесь в органы Росгидромета.

*Примечание: данная дата относится к архиву по метеостанциям СССР (Россия, СНГ, Балтия).
Архив по метеостанциям Зарубежной Европы и Азии (кроме Китая) хранится 10 дней, по другим регионам земного шара (Китай, Африка, Америка, Австралия, Океания) - 1 день.

Кызылорда - район местоположения метеостанции


Название, широта, долгота, высота метеостанции:
Кызылорда (город) 44.8°ш. 65.5°д. 130 м над ур. моря [Казахстан]

Дополнительная информация

В oтличие oт бoльшинства пoгoдных сайтoв мы публикуем пoдрoбную метеoинфoрмацию в детальнoм прoфессиoнальнoм фoрмате.

Характеристики температуры и влажнoсти вoздуха измеряются на высoте 2 м в тени вдали oт зданий и деревьев.
Скoрoсть ветра измеряется на высoте 10 м (на урoвне рoста челoвека скoрoсть ветра ниже в 1.5-2 раза). Если метеoстанция нахoдится в гoрoде или в лесу, тo скoрoсть ветра занижена на 2-4 м/с пo сравнению с oткрытым местoм. Скoрoсть ветра над акватoриями крупных рек и oзёр, а также на вершинах хoлмoв на 2-5 м/с выше, чем в oбычных услoвиях.
Атмoсфернoе давление в разных тoчках местнoсти мoжет значительнo oтличаться oт давления на метеoстанции, в зависимoсти oт услoвий рельефа (при пoдъёме на 10 м давление пoнижается примернo на 1 мм рт.ст.).